Location: Newark
(9.4667°S, 159.8167°E)
Time: 02:30:27
(UTC+00:00)

Explorer 7 - Pass Details

Date: 17 November 2019
Orbit: 485 x 680 km, 50.3° (Epoch: 07 December)

Event Time Altitude Azimuth Distance (km) Brightness Sun altitude
Rises 09:49:10 0° 206° (SSW) 3,011 11.3 -33.9°
Reaches altitude 10° 09:51:38 10° 198° (SSW) 2,108 10.3 -34.4°
Enters shadow 09:52:52 17° 191° (S) 1,690 9.6 -34.6°
